Simultaneous Nadir Overpasses (SNOs) Predictions

Prediction of SNOs between LANDSAT-8 and METOP-B Satellite Orbit:

Table of predicted SNOs for the next 14.0 days since TLE Epoch: 11/4/2023
Index Date (LANDSAT-8) Time (LANDSAT-8) Lat,Lon (LANDSAT-8) SZA (LANDSAT-8 ) Date (METOP-B) Time (METOP-B) Lat,Lon (METOP-B) SZA (METOP-B ) Distance(km) Time Diff (sec)
1 11/06/2023 11:57:16 81.24, 42.45 99.76 11/06/2023 11:56:14 81.24, 42.57 99.75 2.11 62
2 11/06/2023 12:46:42 -81.26,-149.59 80.19 11/06/2023 12:46:54 -81.25,-149.73 80.20 2.43 12
3 11/09/2023 07:31:28 81.24, 108.91 100.58 11/09/2023 07:30:34 81.24, 108.92 100.56 0.63 54
4 11/09/2023 08:20:54 -81.26, -83.12 79.37 11/09/2023 08:21:13 -81.26, -82.98 79.34 2.39 19
5 11/12/2023 03:05:40 81.24, 175.46 101.37 11/12/2023 03:04:54 81.25, 175.56 101.36 1.73 46
6 11/12/2023 03:55:06 -81.26, -16.54 78.57 11/12/2023 03:55:34 -81.26, -16.72 78.58 2.94 28
7 11/14/2023 22:39:51 81.26,-117.89 102.13 11/14/2023 22:39:14 81.25,-117.91 102.11 0.54 37
8 11/14/2023 23:29:17 -81.28, 50.13 77.81 11/14/2023 23:29:53 -81.27, 50.22 77.79 1.57 36
9 11/17/2023 18:14:01 81.25, -51.51 102.81 11/17/2023 18:13:33 81.25, -51.48 102.80 0.48 28



Historial Predications of SNOs between LANDSAT-8 and METOP-B
